Chehalis, WA

9:02 AM PST on December 04, 2016 (GMT -0800)
Chehalis-Centralia

Weather History for KCLS - May, 2013

Change the Weather History Date:

Monday, May 20, 2013

  Actual Average (KOLM) Record (KOLM)
Temperature  
Mean Temperature 55 °F 55 °F  
Max Temperature 68 °F 66 °F 90 °F (1963)
Min Temperature 42 °F 44 °F 29 °F (1975)
Degree Days  
Heating Degree Days 10 10  
Month to date heating degree days 239  
Since 1 July heating degree days 5098  
Cooling Degree Days 0 0  
Month to date cooling degree days 0  
Year to date cooling degree days 0  
Growing Degree Days 5 (Base 50)    
Moisture  
Dew Point 46 °F    
Average Humidity 75    
Maximum Humidity 100    
Minimum Humidity 49    
Precipitation  
Precipitation 0.06 in 0.07 in 0.51 in (2010)
Month to date precipitation 1.54  
Year to date precipitation 23.48  
Sea Level Pressure  
Sea Level Pressure 30.19 in    
Wind  
Wind Speed 1 mph (North)    
Max Wind Speed 9 mph    
Max Gust Speed -    
Visibility 9 miles    
Events Rain    
T = Trace of Precipitation, MM = Missing Value Source: NWS Daily Summary

Daily Weather History Graph

Daily Weather History Graph

Search for Another Location

Airport or City:

Trip Planner

Search our weather history database for the weather conditions in past years. The results will help you decide how hot, cold, wet, or windy it might be!

Date:

Astronomy

May. 20, 2013 Rise Set
Actual Time 5:31 AM PDT 8:46 PM PDT
Civil Twilight 4:55 AM PDT 9:22 PM PDT
Nautical Twilight 4:07 AM PDT 10:10 PM PDT
Astronomical Twilight 3:08 AM PDT 11:10 PM PDT
Moon 3:43 PM PDT (5/20) 2:47 AM PDT (5/20)
Length of Visible Light 16h 27m
Length of Day
15h 14m
Waxing Gibbous, 76% of the Moon is Illuminated
May 20
Waxing Gibbous
May 24
Full
May 31
Last Quarter
Jun 8
New
Jun 16
First Quarter

Hourly Weather History & Observations

Time (PDT) Temp. Windchill Dew Point Humidity Pressure Visibility Wind Dir Wind Speed Gust Speed Precip Events Conditions
12:15 AM 48.2 °F - 44.6 °F 87% 30.39 in 6.0 mi Calm Calm - N/A   Clear
12:35 AM 46.4 °F - 44.6 °F 93% 30.40 in 6.0 mi Calm Calm - N/A   Clear
12:55 AM 46.4 °F - 44.6 °F 93% 30.39 in 6.0 mi Calm Calm - N/A   Clear
1:15 AM 46.4 °F - 44.6 °F 93% 30.40 in 6.0 mi Calm Calm - N/A   Clear
1:35 AM 44.6 °F 43.1 °F 44.6 °F 100% 30.40 in 6.0 mi SW 3.5 mph - N/A   Clear
1:55 AM 44.6 °F - 44.6 °F 100% 30.40 in 6.0 mi Calm Calm - N/A   Clear
2:15 AM 44.6 °F - 44.6 °F 100% 30.39 in 6.0 mi Calm Calm - N/A   Clear
2:35 AM 44.6 °F - 42.8 °F 93% 30.39 in 5.0 mi Calm Calm - N/A   Mostly Cloudy
2:55 AM 42.8 °F - 41.0 °F 93% 30.39 in 5.0 mi Calm Calm - N/A   Overcast
3:15 AM 42.8 °F - 42.8 °F 100% 30.38 in 7.0 mi Calm Calm - N/A   Overcast
3:35 AM 44.6 °F - 42.8 °F 93% 30.38 in 10.0 mi Calm Calm - N/A   Overcast
3:55 AM 44.6 °F - 42.8 °F 93% 30.37 in 7.0 mi Calm Calm - N/A   Overcast
4:15 AM 44.6 °F - 42.8 °F 93% 30.36 in 8.0 mi Calm Calm - N/A   Overcast
4:55 AM 44.6 °F - 44.6 °F 100% 30.35 in 10.0 mi Calm Calm - N/A   Overcast
5:15 AM 44.6 °F - 44.6 °F 100% 30.35 in 9.0 mi Calm Calm - N/A   Overcast
5:35 AM 44.6 °F - 44.6 °F 100% 30.34 in 10.0 mi Calm Calm - N/A   Overcast
5:55 AM 44.6 °F - 42.8 °F 93% 30.34 in 7.0 mi Calm Calm - N/A   Overcast
6:15 AM 44.6 °F - 44.6 °F 100% 30.33 in 5.0 mi Calm Calm - N/A   Mostly Cloudy
6:35 AM 44.6 °F - 42.8 °F 93% 30.33 in 5.0 mi Calm Calm - N/A   Partly Cloudy
6:55 AM 46.4 °F - 42.8 °F 87% 30.33 in 8.0 mi Calm Calm - N/A   Clear
7:15 AM 46.4 °F - 44.6 °F 93% 30.32 in 10.0 mi Calm Calm - N/A   Clear
7:35 AM 46.4 °F - 44.6 °F 93% 30.32 in 10.0 mi Calm Calm - N/A   Mostly Cloudy
7:55 AM 48.2 °F - 44.6 °F 87% 30.32 in 8.0 mi Calm Calm - N/A   Overcast
8:15 AM 50.0 °F - 44.6 °F 82% 30.31 in 9.0 mi Calm Calm - N/A   Overcast
8:35 AM 50.0 °F - 46.4 °F 87% 30.31 in 8.0 mi Calm Calm - N/A   Overcast
8:55 AM 51.8 °F - 46.4 °F 82% 30.30 in 10.0 mi Calm Calm - N/A   Overcast
9:15 AM 51.8 °F - 46.4 °F 82% 30.29 in 10.0 mi Calm Calm - N/A   Overcast
9:35 AM 53.6 °F - 46.4 °F 77% 30.29 in 10.0 mi Calm Calm - N/A   Overcast
9:55 AM 53.6 °F - 46.4 °F 77% 30.28 in 10.0 mi Calm Calm - N/A   Overcast
10:15 AM 55.4 °F - 46.4 °F 72% 30.26 in 10.0 mi Calm Calm - N/A   Overcast
10:35 AM 55.4 °F - 46.4 °F 72% 30.26 in 10.0 mi WSW 3.5 mph - N/A   Overcast
10:55 AM 53.6 °F - 46.4 °F 77% 30.25 in 10.0 mi Calm Calm - N/A   Overcast
11:15 AM 55.4 °F - 46.4 °F 72% 30.25 in 10.0 mi NE 3.5 mph - N/A   Overcast
11:35 AM 57.2 °F - 48.2 °F 72% 30.24 in 10.0 mi NNE 3.5 mph - N/A   Overcast
11:55 AM 59.0 °F - 48.2 °F 67% 30.24 in 10.0 mi SSE 4.6 mph - N/A   Overcast
12:15 PM 59.0 °F - 48.2 °F 67% 30.22 in 10.0 mi ENE 5.8 mph - N/A   Scattered Clouds
12:35 PM 59.0 °F - 48.2 °F 67% 30.21 in 10.0 mi NE 3.5 mph - N/A   Clear
12:55 PM 60.8 °F - 48.2 °F 63% 30.20 in 10.0 mi Calm Calm - N/A   Clear
1:15 PM 62.6 °F - 48.2 °F 59% 30.19 in 10.0 mi ENE 3.5 mph - N/A   Clear
1:35 PM 62.6 °F - 48.2 °F 59% 30.17 in 7.0 mi NE 3.5 mph - N/A   Clear
1:55 PM 64.4 °F - 48.2 °F 56% 30.16 in 10.0 mi NE 3.5 mph - N/A   Clear
2:15 PM 66.2 °F - 48.2 °F 52% 30.15 in 10.0 mi ENE 3.5 mph - N/A   Clear
2:35 PM 66.2 °F - 48.2 °F 52% 30.14 in 10.0 mi WSW 3.5 mph - N/A   Clear
2:55 PM 68.0 °F - 48.2 °F 49% 30.12 in 10.0 mi Calm Calm - N/A   Clear
3:15 PM 66.2 °F - 48.2 °F 52% 30.12 in 10.0 mi NNE 3.5 mph - N/A   Clear
3:35 PM 68.0 °F - 48.2 °F 49% 30.10 in 10.0 mi Calm Calm - N/A   Clear
3:55 PM 68.0 °F - 48.2 °F 49% 30.09 in 10.0 mi East 3.5 mph - N/A   Clear
4:15 PM 68.0 °F - 48.2 °F 49% 30.07 in 10.0 mi East 4.6 mph - N/A   Clear
4:35 PM 68.0 °F - 48.2 °F 49% 30.06 in 10.0 mi East 4.6 mph - N/A   Clear
4:55 PM 68.0 °F - 48.2 °F 49% 30.05 in 10.0 mi North 4.6 mph - N/A   Clear
5:15 PM 68.0 °F - 50.0 °F 52% 30.04 in 10.0 mi North 6.9 mph - N/A   Clear
5:35 PM 68.0 °F - 50.0 °F 52% 30.03 in 9.0 mi NNE 5.8 mph - N/A   Clear
5:55 PM 66.2 °F - 50.0 °F 56% 30.02 in 10.0 mi NNE 9.2 mph - N/A   Partly Cloudy
6:15 PM 66.2 °F - 48.2 °F 52% 30.01 in 8.0 mi North 4.6 mph - N/A   Partly Cloudy
6:35 PM 66.2 °F - 50.0 °F 56% 30.00 in 10.0 mi NNW 3.5 mph - N/A   Clear
6:55 PM 64.4 °F - 48.2 °F 56% 30.00 in 10.0 mi NNW 6.9 mph - N/A   Clear
7:15 PM 62.6 °F - 48.2 °F 59% 30.00 in 10.0 mi NNW 6.9 mph - N/A   Partly Cloudy
7:35 PM 62.6 °F - 48.2 °F 59% 30.00 in 10.0 mi NNW 8.1 mph - N/A   Mostly Cloudy
7:55 PM 60.8 °F - 48.2 °F 63% 29.99 in 10.0 mi NNW 6.9 mph - N/A   Scattered Clouds
8:15 PM 59.0 °F - 48.2 °F 67% 29.99 in 10.0 mi NW 3.5 mph - N/A   Partly Cloudy
8:35 PM 59.0 °F - 48.2 °F 67% 29.99 in 10.0 mi NW 4.6 mph - N/A   Scattered Clouds
8:55 PM 57.2 °F - 48.2 °F 72% 29.98 in 10.0 mi West 4.6 mph - N/A   Scattered Clouds
9:15 PM 55.4 °F - 48.2 °F 77% 29.98 in 10.0 mi WNW 3.5 mph - N/A   Mostly Cloudy
9:35 PM 55.4 °F - 48.2 °F 77% 29.98 in 10.0 mi Calm Calm - N/A   Overcast
9:55 PM 55.4 °F - 48.2 °F 77% 29.98 in 10.0 mi Calm Calm - N/A   Overcast
10:15 PM 55.4 °F - 46.4 °F 72% 29.97 in 10.0 mi WNW 3.5 mph - N/A   Overcast
10:35 PM 53.6 °F - 46.4 °F 77% 29.97 in 9.0 mi NW 4.6 mph - N/A Rain Light Rain
10:55 PM 51.8 °F - 48.2 °F 88% 29.97 in 10.0 mi WNW 3.5 mph - 0.01 in   Overcast
11:15 PM 51.8 °F - 48.2 °F 88% 29.97 in 9.0 mi WNW 3.5 mph - N/A   Overcast
11:35 PM 50.0 °F - 44.6 °F 82% 29.97 in 7.0 mi NW 4.6 mph - 0.01 in Rain Light Rain
11:55 PM 48.2 °F - 44.6 °F 87% 29.97 in 5.0 mi Calm Calm - 0.05 in Rain Light Rain